Lafayette Regional Airport Lafayette US
ICAO: KLFT
IATA: LFT
Category: Large
Scheduled Services: Yes

Elevation: 42 ft
TransAlt. 18000 ft.

Airport Communications:
APP/DEP:121.1
ATIS:134.05
CLNC DEL:125.55
CTAF:118.5
GND:121.8
DE RIDDER RDO:122.35
TWR:118.5
UNICOM:122.95

KLFT Zoom In..

If you have problems with the map follow the link
https://www.worldairports.se/pages/airport.php?
ICAO=KLFT

Runways:

(A) RW 04L length 4099 ft width 75 ft
---- / hdg 36

(B) RW 04R length 8001 ft width 150 ft
ILS 110.90 / hdg 36

(C) RW 11 length 5401 ft width 148 ft
---- / hdg 107

(D) RW 22L length 8001 ft width 150 ft
ILS 109.50 / hdg 216

(E) RW 22R length 4099 ft width 75 ft
---- / hdg 216

(F) RW 29 length 5401 ft width 148 ft
---- / hdg 287

Location; KLFT
Day. 23 / Time. 21.55 Zulu
* Altimeter: 29.88
* Temperature: 20° c. 68°f.
* Wind from: 300° Speed 07 kn.
Dewpoint: 13° c.
Visibility: 10 Statute Miles.
Clouds: Few 3300 ft.
Clouds: Broken 4000 ft.

KLFT 232155Z 30007KT 10SM FEW033 BKN040 20/13 A2988 RMK AO2 T02000133


Wind From 300°
Speed 07 kn.

 
 
jpsmedia worldairports.se 2020   terms of use